CW4829 Weather Reports


Display with metric or nautical units.
time (UTC)temp
F
wind
direction
speed
MPH
gust
MPH
rain 1hr
in
rain 24hr
in
rain mn
in
humidity
%
barometer
mb
20260507073528 40 330 0.0 0.0 0.00 0.11 0.00 83 1010.1
20260507073044 40 330 0.0 0.0 0.00 0.11 0.00 82 1010.1
20260507072547 40 330 0.0 0.0 0.00 0.11 0.00 82 1010.1
20260507072054 40 330 0.0 0.0 0.00 0.11 0.00 82 1010.1
20260507071030 40 330 0.0 0.0 0.00 0.11 0.00 82 1010.2
20260507070546 40 330 0.0 0.0 0.00 0.11 0.00 82 1010.2
20260507070110 40 330 0.0 0.0 0.00 0.11 0.00 82 1010.2
20260507065526 40 330 0.0 0.0 0.00 0.21 0.00 82 1010.2
20260507065047 40 330 0.0 0.0 0.00 0.21 0.00 81 1010.2
20260507064543 40 330 0.0 0.0 0.00 0.21 0.00 81 1010.2
20260507063525 40 330 0.0 0.0 0.00 0.21 0.00 81 1010.2
20260507063051 40 330 0.0 0.0 0.00 0.21 0.00 81 1010.2
20260507062559 40 330 0.0 0.0 0.00 0.21 0.00 81 1010.3
20260507061517 40 330 0.0 0.0 0.00 0.21 0.00 81 1010.3
20260507061033 40 330 0.0 0.0 0.00 0.21 0.00 81 1010.4
20260507060607 40 330 0.0 0.0 0.00 0.21 0.00 80 1010.4
20260507060020 40 330 0.0 0.0 0.00 0.21 0.00 80 1010.4
20260507055518 40 330 0.0 0.0 0.00 0.24 0.00 81 1010.6
20260507055045 41 330 0.0 0.0 0.00 0.24 0.00 81 1010.6
20260507054532 41 330 0.0 0.0 0.00 0.24 0.00 81 1010.6
20260507054022 41 330 0.0 0.0 0.00 0.24 0.00 81 1010.7
20260507053526 41 330 0.0 0.0 0.00 0.24 0.00 81 1010.7
20260507053018 41 330 0.0 0.0 0.00 0.24 0.00 80 1010.7
20260507052541 41 330 0.0 0.0 0.00 0.24 0.00 80 1010.7
20260507052033 41 330 0.0 0.0 0.00 0.24 0.00 80 1010.7
20260507051522 41 330 0.0 0.0 0.00 0.24 0.00 79 1010.7
20260507051033 41 330 0.0 0.0 0.00 0.24 0.00 79 1010.7
20260507050552 41 330 0.0 0.0 0.00 0.24 0.00 78 1010.7
20260507050028 42 330 0.0 0.0 0.00 0.24 0.00 78 1010.7
20260507045518 42 330 0.0 0.0 0.00 0.24 0.00 77 1010.7
20260507045030 42 330 0.0 0.0 0.00 0.24 0.00 77 1010.7
20260507044524 42 330 0.0 0.0 0.00 0.24 0.00 77 1010.7
20260507044020 42 330 0.0 0.0 0.00 0.24 0.00 77 1010.7
20260507043538 42 330 0.0 0.0 0.00 0.24 0.00 77 1010.7
20260507043021 42 330 0.0 0.0 0.00 0.24 0.00 76 1010.7
20260507042534 42 330 0.0 0.0 0.00 0.24 0.00 75 1010.7
20260507042028 42 330 0.0 0.0 0.00 0.24 0.00 75 1010.7
20260507041518 42 330 0.0 0.0 0.00 0.24 0.00 75 1010.7
20260507041043 42 330 0.0 0.0 0.00 0.24 0.00 75 1010.8
20260507040530 43 330 0.0 0.0 0.00 0.24 0.00 75 1010.8
20260507040056 43 330 0.0 0.0 0.00 0.24 0.00 75 1010.8
20260507035528 43 330 0.0 0.0 0.00 0.29 0.24 74 1010.8
20260507035039 43 330 0.0 0.0 0.00 0.29 0.24 74 1010.8
20260507034547 43 330 0.0 0.0 0.00 0.29 0.24 73 1010.8
20260507034113 43 330 0.0 0.0 0.00 0.29 0.24 72 1011.0
20260507033522 44 330 0.0 0.0 0.00 0.29 0.24 72 1011.0
20260507033022 44 330 0.0 0.0 0.00 0.29 0.24 72 1011.0
20260507032535 44 330 0.0 0.0 0.00 0.29 0.24 71 1011.1
20260507032053 44 330 0.0 0.0 0.00 0.29 0.24 70 1011.1
20260507031034 45 330 0.0 0.0 0.00 0.29 0.24 70 1011.2
20260507030527 45 330 0.0 0.0 0.00 0.29 0.24 70 1011.2
20260507030048 45 330 0.0 0.0 0.00 0.29 0.24 69 1011.2
20260507025558 45 330 0.0 0.0 0.00 0.38 0.24 67 1011.2
20260507025101 46 330 0.0 0.0 0.00 0.38 0.24 66 1011.2
20260507024032 46 330 0.0 0.0 0.00 0.38 0.24 65 1011.1
20260507023025 47 330 0.0 0.0 0.00 0.38 0.24 64 1011.1
20260507022528 47 330 0.0 0.0 0.00 0.38 0.24 64 1010.8
20260507022036 47 330 0.0 0.0 0.00 0.38 0.24 64 1010.8
20260507021548 48 330 0.0 0.0 0.00 0.38 0.24 64 1010.8
20260507021045 48 330 0.0 0.0 0.00 0.38 0.24 64 1010.7
20260507020018 49 330 0.0 0.0 0.00 0.38 0.24 61 1010.7
20260507015535 50 330 0.0 0.0 0.00 0.52 0.24 61 1010.7
20260507015039 50 330 0.0 0.0 0.00 0.52 0.24 61 1010.7
20260507014545 50 330 0.0 0.0 0.00 0.52 0.24 60 1010.7
20260507014045 51 330 0.0 0.0 0.00 0.52 0.24 60 1010.7
20260507013036 51 330 0.0 0.0 0.00 0.52 0.24 59 1010.7
20260507012546 51 330 0.0 0.0 0.00 0.52 0.24 59 1010.6
20260507011519 52 330 0.0 2.0 0.00 0.52 0.24 57 1010.6
20260507010132 52 330 0.0 2.0 0.00 0.52 0.24 57 1010.3
20260507005612 52 330 0.0 1.0 0.00 0.59 0.24 56 1010.2
20260507005120 52 330 0.0 2.0 0.00 0.59 0.24 56 1010.2
20260507004613 52 330 0.0 3.0 0.00 0.59 0.24 56 1010.2
20260507004023 52 330 0.0 3.0 0.00 0.59 0.24 56 1010.0
20260507003531 52 355 0.0 1.0 0.00 0.59 0.24 55 1010.0
20260507003037 52 355 0.0 3.0 0.00 0.59 0.24 55 1010.0
20260507002531 52 355 0.0 4.0 0.00 0.59 0.24 55 1009.9
20260507002051 52 355 1.0 4.0 0.00 0.59 0.24 54 1009.9
20260507001016 53 336 1.0 5.0 0.00 0.59 0.24 54 1009.9
20260507000540 53 329 4.0 6.0 0.00 0.59 0.24 54 1009.9
20260507000058 53 346 2.0 6.0 0.00 0.59 0.24 54 1009.9
20260506235545 53 350 3.0 6.0 0.00 0.74 0.24 54 1009.6
20260506234527 53 302 2.0 5.0 0.00 0.74 0.24 54 1009.6
20260506233533 53 331 4.0 7.0 0.00 0.74 0.24 54 1009.6
20260506233057 54 14 3.0 6.0 0.00 0.74 0.24 55 1009.6
20260506232019 54 336 2.0 7.0 0.00 0.74 0.24 55 1010.1
20260506231546 54 276 3.0 7.0 0.00 0.74 0.24 53 1010.1
20260506231101 54 325 4.0 8.0 0.00 0.74 0.24 54 1010.1
20260506230032 54 18 3.0 7.0 0.00 0.74 0.24 54 1010.1
20260506225542 54 331 2.0 8.0 0.00 0.80 0.24 53 1010.1
20260506224541 54 355 3.0 7.0 0.00 0.80 0.24 53 1010.1
20260506223530 54 304 4.0 7.0 0.00 0.80 0.24 53 1010.1
20260506222534 54 337 2.0 6.0 0.00 0.80 0.24 55 1010.1
20260506222057 54 343 4.0 6.0 0.00 0.80 0.24 55 1010.1
20260506221555 54 336 3.0 8.0 0.00 0.80 0.24 55 1010.1
20260506220538 54 336 5.0 8.0 0.00 0.80 0.24 54 1009.8
20260506220052 54 332 5.0 8.0 0.00 0.80 0.24 54 1009.8
20260506215604 55 318 5.0 8.0 0.00 1.05 0.24 54 1009.6
20260506215103 55 315 3.0 8.0 0.00 1.05 0.24 55 1009.6
20260506214040 54 338 2.0 8.0 0.00 1.05 0.24 54 1009.4
20260506213545 54 360 6.0 10.0 0.00 1.05 0.24 54 1009.4
20260506212524 55 340 4.0 11.0 0.00 1.05 0.24 55 1009.3
20260506212022 55 295 5.0 8.0 0.00 1.05 0.24 54 1009.3
20260506211021 55 311 4.0 9.0 0.00 1.05 0.24 55 1009.5
20260506210537 55 313 4.0 9.0 0.00 1.05 0.24 55 1009.5
20260506210039 55 312 3.0 9.0 0.00 1.05 0.24 56 1009.5
20260506205021 55 343 3.0 8.0 0.00 1.06 0.24 55 1009.2
20260506204529 55 355 2.0 8.0 0.00 1.06 0.24 56 1009.2
20260506204100 55 302 3.0 9.0 0.00 1.06 0.24 55 1009.0
20260506203629 55 333 5.0 9.0 0.00 1.06 0.24 56 1009.0
20260506203019 55 5 3.0 8.0 0.00 1.06 0.24 56 1009.0
20260506202542 55 329 4.0 10.0 0.00 1.06 0.24 56 1009.1
20260506202057 55 281 5.0 10.0 0.00 1.06 0.24 55 1009.1
20260506201605 55 5 4.0 9.0 0.00 1.06 0.24 56 1009.1
20260506201110 55 308 6.0 9.0 0.00 1.06 0.24 55 1009.0
20260506200030 55 305 3.0 11.0 0.00 1.06 0.24 58 1009.0
20260506195026 55 9 5.0 9.0 0.00 1.06 0.24 59 1009.2
20260506194035 55 45 3.0 9.0 0.00 1.06 0.24 59 1009.3
20260506193604 55 303 5.0 9.0 0.00 1.06 0.24 59 1009.3
20260506192545 55 9 4.0 9.0 0.00 1.06 0.24 58 1009.1
20260506192052 55 340 2.0 10.0 0.00 1.06 0.24 58 1009.1
20260506191612 56 355 5.0 10.0 0.00 1.06 0.24 58 1009.1
20260506190536 56 301 4.0 9.0 0.00 1.06 0.24 59 1008.9
20260506190101 56 360 5.0 11.0 0.00 1.06 0.24 58 1008.9
20260506185038 57 335 5.0 10.0 0.00 1.06 0.24 59 1009.0
20260506184557 56 351 3.0 9.0 0.00 1.06 0.24 59 1009.0
20260506184107 56 322 6.0 11.0 0.00 1.06 0.24 59 1009.0
20260506183609 56 284 6.0 11.0 0.00 1.06 0.24 60 1009.0
20260506183117 56 199 4.0 10.0 0.00 1.06 0.24 60 1009.0
20260506182607 56 329 5.0 10.0 0.00 1.06 0.24 60 1009.1
20260506182054 56 321 5.0 10.0 0.00 1.06 0.24 60 1009.1
20260506181025 57 336 5.0 10.0 0.00 1.06 0.24 61 1009.1
20260506180532 56 333 3.0 16.0 0.00 1.06 0.24 61 1009.1
20260506175540 56 325 8.0 14.0 0.00 1.06 0.24 61 1009.0
20260506174522 56 284 5.0 10.0 0.00 1.06 0.24 64 1009.0
20260506174049 56 360 3.0 10.0 0.00 1.06 0.24 64 1009.1
20260506173032 56 241 3.0 10.0 0.00 1.06 0.24 65 1009.1
20260506172550 56 44 5.0 8.0 0.00 1.06 0.24 66 1009.0
20260506172044 56 360 2.0 9.0 0.00 1.06 0.24 68 1009.0
20260506171550 55 355 5.0 9.0 0.00 1.06 0.24 67 1009.0
20260506171105 55 250 3.0 10.0 0.00 1.06 0.24 68 1009.1
20260506170624 55 305 5.0 9.0 0.00 1.06 0.24 67 1009.1
20260506170021 55 299 5.0 7.0 0.00 1.06 0.24 69 1009.1
20260506165536 55 220 4.0 6.0 0.00 1.06 0.24 69 1009.3
20260506164526 54 348 5.0 10.0 0.00 1.06 0.24 72 1009.3
20260506164053 54 313 2.0 8.0 0.00 1.06 0.24 72 1009.2
20260506163027 53 249 4.0 10.0 0.00 1.06 0.24 72 1009.2
20260506162546 53 292 4.0 10.0 0.00 1.06 0.24 73 1009.2
20260506162100 53 301 6.0 10.0 0.00 1.06 0.24 74 1009.2
20260506161024 52 37 3.0 8.0 0.00 1.06 0.24 76 1008.9
20260506160546 52 336 4.0 10.0 0.00 1.06 0.24 77 1008.9
20260506160122 52 320 5.0 10.0 0.00 1.06 0.24 77 1008.9
20260506155611 52 67 4.0 8.0 0.00 1.06 0.24 77 1008.8
20260506154532 52 293 3.0 8.0 0.00 1.06 0.24 78 1008.8
20260506154034 52 360 5.0 8.0 0.00 1.06 0.24 78 1008.5
20260506153607 52 74 2.0 9.0 0.00 1.06 0.24 80 1008.5
20260506153120 51 12 5.0 9.0 0.00 1.06 0.24 80 1008.5
20260506152033 51 343 4.0 9.0 0.00 1.06 0.24 80 1008.5
20260506151550 51 283 4.0 11.0 0.00 1.06 0.24 81 1008.5
20260506150519 50 334 5.0 8.0 0.00 1.06 0.24 82 1008.4
20260506150033 50 285 4.0 7.0 0.00 1.06 0.24 82 1008.4
20260506145543 49 350 2.0 8.0 0.00 1.06 0.24 82 1008.5
20260506144544 49 313 5.0 7.0 0.00 1.06 0.24 83 1008.5
20260506144049 49 341 3.0 7.0 0.00 1.06 0.24 84 1008.1
20260506143600 49 348 3.0 8.0 0.00 1.06 0.24 84 1008.1
20260506143114 49 311 3.0 8.0 0.00 1.06 0.24 85 1008.1
20260506142602 48 355 4.0 10.0 0.00 1.06 0.24 84 1007.9
20260506142053 48 355 6.0 10.0 0.00 1.06 0.24 86 1007.9
20260506141552 48 342 3.0 7.0 0.00 1.06 0.24 87 1007.9
20260506141104 48 314 4.0 7.0 0.00 1.06 0.24 87 1007.5
20260506140608 48 338 5.0 8.0 0.00 1.06 0.24 88 1007.5
20260506135532 47 317 4.0 7.0 0.00 1.06 0.24 90 1007.5
20260506135103 47 74 2.0 6.0 0.00 1.06 0.24 90 1007.5
20260506134029 47 322 5.0 8.0 0.00 1.06 0.24 91 1007.4
20260506133605 47 355 5.0 9.0 0.00 1.06 0.24 92 1007.4
20260506133050 46 14 4.0 7.0 0.00 1.06 0.24 92 1007.4
20260506132554 46 341 4.0 12.0 0.00 1.06 0.24 93 1007.5
20260506132053 46 332 4.0 12.0 0.00 1.06 0.24 93 1007.5
20260506131028 46 307 2.0 8.0 0.00 1.06 0.24 93 1007.5
20260506130033 46 305 3.0 6.0 0.00 1.06 0.24 94 1007.5
20260506125559 46 331 3.0 6.0 0.00 1.06 0.24 94 1007.4
20260506125117 46 348 2.0 6.0 0.00 1.06 0.24 94 1007.4
20260506124518 45 337 4.0 7.0 0.00 1.06 0.24 94 1007.4
20260506124026 45 281 3.0 7.0 0.00 1.06 0.24 94 1006.9
20260506123053 45 12 5.0 9.0 0.00 1.06 0.24 95 1006.9
20260506122025 45 9 3.0 4.0 0.00 1.06 0.24 95 1006.4
20260506121554 45 18 2.0 5.0 0.00 1.06 0.24 95 1006.4
20260506120530 44 15 1.0 3.0 0.00 1.06 0.24 95 1006.5
20260506120023 44 15 1.0 4.0 0.00 1.06 0.24 95 1006.5
20260506115541 44 360 2.0 8.0 0.00 1.06 0.24 95 1006.4
20260506114533 45 320 4.0 7.0 0.00 1.06 0.24 95 1006.4
20260506114043 45 59 1.0 8.0 0.00 1.06 0.24 96 1005.8
20260506113551 45 355 2.0 8.0 0.00 1.06 0.24 96 1005.8
20260506112534 46 318 4.0 8.0 0.00 1.06 0.24 96 1005.3
20260506112102 46 351 5.0 8.0 0.00 1.06 0.24 96 1005.3
20260506111605 46 9 4.0 8.0 0.00 1.06 0.24 96 1005.3
20260506111050 46 355 4.0 8.0 0.00 1.06 0.24 96 1005.3
20260506110028 46 17 2.0 5.0 0.00 1.06 0.24 96 1005.3
20260506105546 46 360 3.0 6.0 0.00 1.06 0.24 96 1005.3
20260506104620 46 346 2.0 8.0 0.00 1.06 0.24 96 1005.3
20260506103544 46 17 3.0 5.0 0.00 1.06 0.24 96 1005.3
20260506103049 46 348 0.0 6.0 0.00 1.06 0.24 96 1005.3
20260506102030 46 46 4.0 8.0 0.00 1.06 0.24 96 1005.3
20260506101021 46 327 3.0 5.0 0.00 1.06 0.24 96 1004.3
20260506100537 46 340 2.0 5.0 0.00 1.06 0.24 96 1004.3
20260506095527 46 13 2.0 4.0 0.01 1.06 0.24 96 1004.2
20260506095046 46 360 2.0 3.0 0.01 1.06 0.24 96 1004.2
20260506094558 46 346 1.0 4.0 0.02 1.06 0.24 96 1004.2
20260506094045 46 346 1.0 4.0 0.03 1.06 0.24 96 1003.7
20260506093123 46 69 1.0 4.0 0.03 1.06 0.24 96 1003.7
20260506092620 46 69 1.0 6.0 0.04 1.06 0.24 96 1004.3
20260506092104 46 36 3.0 6.0 0.05 1.06 0.24 96 1004.3
20260506091522 46 338 2.0 8.0 0.06 1.06 0.24 96 1004.3
20260506091047 46 5 3.0 8.0 0.07 1.06 0.24 96 1004.2
20260506090606 46 20 1.0 7.0 0.07 1.06 0.24 96 1004.2
20260506085529 46 347 1.0 6.0 0.07 1.05 0.23 96 1004.6
20260506085053 46 336 3.0 7.0 0.07 1.05 0.23 96 1004.6
20260506084045 46 336 3.0 6.0 0.05 1.03 0.21 96 1004.5
20260506083024 46 5 6.0 11.0 0.05 1.03 0.21 96 1004.5
20260506082543 47 360 4.0 10.0 0.04 1.02 0.20 96 1004.4
20260506082101 47 347 2.0 6.0 0.04 1.01 0.19 96 1004.4
20260506081050 47 333 3.0 10.0 0.02 0.99 0.17 96 1004.2
20260506080533 47 307 4.0 10.0 0.03 0.99 0.17 96 1004.2